Location: Angres
(50.4057°N, 2.7605°E)
Time: 21:59:03
(UTC+00:00)

Daily predictions for brighter satellites

Satellite Brightness Start Highest point End
(mag) Time Altitude Azimuth Time Altitude Azimuth Time Altitude Azimuth
Nadezhda 3 Rocket 4.3 18:01:22 10° N 18:07:18 46° ENE 18:13:11 10° SE
CZ-4B R/B 3.9 18:02:24 10° S 18:07:50 62° WSW 18:13:24 10° NNW
Feng Yun 1-1 Rocket 4.2 18:02:56 10° SSE 18:08:17 75° ENE 18:13:45 10° NNW
Cosmos 773 Rocket 4.1 18:04:14 10° NNW 18:09:30 65° ENE 18:14:45 10° SE
In-Cosmos 22 4.0 18:06:35 10° N 18:11:54 75° ENE 18:17:12 10° SSE
KORONAS-FOTON 4.2 18:09:46 10° N 18:13:23 41° ENE 18:16:58 10° SSE
CZ-4 R/B 1.3 18:10:01 10° SSE 18:13:47 60° ENE 18:17:37 10° N
Okean 2 3.6 18:12:53 10° NNW 18:16:59 76° W 18:21:03 10° S
SKYMED 2 3.8 18:15:10 10° NNE 18:19:32 79° WNW 18:23:52 10° SSW
Cosmos 1975 Rocket 3.8 18:15:37 10° N 18:19:41 34° ENE 18:23:46 10° SE
BREEZE-M DEB (TANK) 4.2 18:09:16 10° WSW 18:19:54 59° SSE 18:23:16 10° E
SL-08 RB Rocket 3.6 18:15:32 10° SSE 18:19:59 74° ENE 18:24:29 10° N
Landsat 5 3.7 18:16:49 10° N 18:20:43 73° WNW 18:24:44 10° SSW
SL-27 R/B 4.3 18:21:34 10° NNE 18:23:33 15° NE 18:25:14 11° E
Okean-O 2.8 18:24:25 10° SE 18:28:43 53° ENE 18:33:04 10° N
CENTAUR R/B 3.8 18:27:09 10° SE 18:30:24 15° ESE 18:33:55 10° ENE
USA 215 3.3 18:24:27 10° ESE 18:31:01 76° NNE 18:37:36 10° WNW
CSL-04 Rocket 3.9 18:26:51 10° SE 18:32:01 49° ENE 18:37:17 10° N
Cosmos 2074 Rocket 4.0 18:27:38 10° S 18:33:54 84° E 18:40:14 10° N
Cosmos 1378 Rocket 4.4 18:30:35 10° NNW 18:34:55 55° W 18:39:15 10° S
Cosmos 1908 Rocket 3.5 18:36:22 10° S 18:40:51 84° E 18:45:20 10° NNE
Lacrosse 4 Rocket 4.1 18:38:50 10° WNW 18:41:20 16° NNW 18:43:51 10° N
IRAS Rocket 4.4 18:36:54 10° NNE 18:42:35 82° WNW 18:48:11 10° SSW
HJ-1C 3.4 18:39:28 10° S 18:42:44 79° W 18:46:00 10° NNW
Resurs 01 Rocket 3.4 18:43:13 13° ENE 18:44:32 15° ENE 18:46:58 10° NNE
Ariane Rocket 4.3 18:42:21 15° E 18:45:07 23° ENE 18:49:02 10° N
Cosmos 1184 Rocket 2.8 18:42:00 10° N 18:45:10 53° ENE 18:48:17 10° SSE
OBJECT-B 1.6 18:43:19 16° SE 18:45:17 31° ENE 18:48:09 10° N
Helios 1A Rocket 4.2 18:44:58 17° E 18:46:47 22° ENE 18:49:58 10° N
Cosmos 1346 Rocket 2.7 18:44:12 10° N 18:48:15 78° ENE 18:52:16 10° SSE
ARGOS 4.2 18:44:28 10° S 18:49:39 49° W 18:54:53 10° NNW
Cosmos 2341 Rocket 4.4 18:45:00 10° SSE 18:50:53 42° E 18:56:50 10° NNE
USA 305 3.1 18:49:58 10° WNW 18:54:10 64° NNE 18:56:53 21° E
YAOGAN 1 3.3 18:50:05 10° S 18:54:19 55° W 18:58:36 10° NNW
DMSP B5D2-2 4.0 18:50:08 10° NNE 18:55:27 71° ESE 19:00:43 10° S
Cosmos 2297 Rocket 3.9 18:52:17 10° N 18:56:06 18° NNE 18:59:03 13° ENE
H-2A R/B 4.3 18:52:06 10° SSW 18:56:25 28° W 19:00:51 10° NW
SJ 16-02 1.5 18:52:21 10° S 18:56:38 51° ESE 19:00:58 10° NNE
USA 186 2.0 18:55:20 22° SE 18:56:54 42° ENE 18:59:56 10° N
Okean O Rocket 4.2 18:53:27 10° SSW 18:57:00 24° W 19:00:32 10° NW
Cosmos 1538 Rocket 4.0 18:52:15 10° NNW 18:57:39 80° ENE 19:03:03 10° SSE
Cosmos 158 Rocket 3.8 18:53:10 10° NNW 18:58:12 68° ENE 19:02:32 13° SE
Cosmos 1943 Rocket 2.7 18:54:25 10° SW 18:59:57 64° WNW 19:05:35 10° NNE
Meteor 1-12 Rocket 4.3 18:54:08 10° S 19:00:05 68° E 19:06:00 10° NNE
COSMOS 2487 4.4 18:59:46 10° NNE 19:01:43 14° NE 19:01:44 14° NE
NOSS 3-2 (A) 4.0 18:57:23 10° S 19:02:10 30° ESE 19:07:33 10° NE
Cosmos 1238 Rocket 4.0 18:58:15 10° SSW 19:04:22 71° W 19:09:38 10° N
ISS -3.6 19:02:28 10° W 19:05:51 70° N 19:07:19 30° E
CZ-2C R/B 3.7 19:00:49 10° N 19:06:09 51° WNW 19:11:33 10° SW
Cosmos 1441 Rocket 3.5 19:04:15 10° N 19:07:51 41° ENE 19:09:11 29° ESE
GENESIS II 4.3 19:05:34 10° SW 19:09:23 73° NW 19:13:17 10° NE
Cosmos 1238 4.2 19:06:40 10° N 19:09:44 51° ENE 19:10:36 36° SE
USA 307 3.0 19:05:41 10° WNW 19:09:56 68° NNE 19:12:02 29° E
Geosat 3.9 19:07:22 10° NNE 19:12:25 73° ESE 19:17:26 10° SSW
PSLV R/B 4.0 19:08:25 10° NNE 19:12:31 55° ESE 19:16:33 10° S
Meteor 2-20 4.4 19:06:54 10° N 19:12:59 64° ENE 19:18:54 11° SSE
Cosmos 962 Rocket 4.4 19:09:48 10° S 19:15:56 70° E 19:22:03 10° NNE
Meteor 1-24 Rocket 3.8 19:11:31 10° N 19:16:44 50° ENE 19:19:55 23° SE
Cosmos 2227 Rocket 3.9 19:14:54 10° N 19:18:55 19° NE 19:21:08 16° ENE
Cosmos 1833 4.2 19:13:43 10° NNW 19:19:23 81° WSW 19:24:01 15° SSE
Cosmos 2369 Rocket 2.2 19:14:14 10° SSW 19:19:54 86° WNW 19:25:35 10° NNE
USA 276 2.0 19:17:07 10° W 19:20:15 79° S 19:20:47 57° ESE
Cosmos 1674 4.3 19:17:31 10° NNW 19:20:56 34° W 19:24:19 10° SSW
Okean 2 Rocket 3.4 19:19:52 26° SE 19:21:47 41° E 19:25:56 10° NNE
USA 306 2.8 19:18:04 10° WNW 19:22:19 78° NNE 19:23:53 38° E
H-2A R/B 3.0 19:19:59 10° N 19:24:03 48° WNW 19:28:01 10° SW
NOSS 3-3 (A) 4.5 19:16:45 10° NW 19:24:06 78° NE 19:29:28 25° SE
NOSS 3-3 (C) 4.5 19:16:51 10° NW 19:24:12 78° NE 19:29:32 25° SE
Lacrosse 5 rocket 4.0 19:21:28 10° W 19:24:31 18° SW 19:27:29 10° SSW
Cosmos 1777 Rocket 4.2 19:22:08 10° SSW 19:27:22 73° WNW 19:32:37 10° NNE
Cosmos 1626 3.3 19:25:20 10° NNW 19:28:52 43° W 19:32:23 10° SSW
USA 308 2.8 19:25:08 10° WNW 19:29:25 79° NNE 19:30:44 44° E
USA 281 4.4 19:25:50 10° NE 19:29:00 21° ENE 19:29:00 21° ENE
SPOT 3 Rocket 4.4 19:30:38 29° E 19:31:29 31° ENE 19:35:58 10° N
Cosmos 1782 Rocket 4.3 19:28:20 10° SSW 19:32:41 54° WNW 19:37:02 10° N
ATLAS CENTAUR R/B 4.5 19:30:52 10° W 19:33:14 14° WSW 19:35:37 10° SW
APEX 3.8 19:29:16 10° NW 19:34:03 63° WSW 19:35:58 29° S
BREEZE-M R/B 2.4 19:31:38 10° W 19:35:12 74° S 19:36:12 46° ESE
Sich 1 Rocket 3.5 19:31:08 10° S 19:35:41 77° E 19:40:11 10° NNE
Cosmos 1656 Rocket 3.6 19:30:19 10° SSW 19:35:53 90° ESE 19:41:26 10° NNE
Cosmos 1726 3.8 19:38:29 20° NE 19:38:29 20° NE 19:39:52 10° NNE
Cosmos 1805 4.0 19:33:50 10° SSW 19:37:38 54° WNW 19:41:28 10° N
CZ-4B R/B 2.4 19:34:45 10° N 19:37:43 43° WNW 19:40:42 10° SW
Cosmos 1025 Rocket 3.3 19:33:28 10° NNW 19:37:48 69° W 19:41:03 17° S
SL-14 R/B 3.7 19:34:11 10° NNW 19:38:07 62° W 19:40:47 19° S
SeaSat 1 2.4 19:36:15 30° SSE 19:38:47 85° WSW 19:43:46 10° NNW
Cosmos 1536 Rocket 3.5 19:34:41 10° N 19:39:06 62° ENE 19:40:03 48° SE
Cosmos 923 Rocket 3.9 19:33:54 10° NNW 19:39:09 80° ENE 19:41:24 35° SSE
Cosmos 1315 Rocket 3.1 19:36:36 10° SSW 19:40:34 67° WNW 19:44:37 10° N
ERBS 3.7 19:38:16 10° NW 19:41:08 27° N 19:41:29 26° NNE
Meteor 2-20 Rocket 4.3 19:34:58 10° N 19:41:08 75° ENE 19:44:56 24° SSE
SJ-6B 3.2 19:41:52 24° S 19:44:13 67° W 19:48:18 10° NNW
SL-8 Rocket 3.9 19:40:33 10° S 19:46:50 82° E 19:53:12 10° N
CZ-4 R/B 4.3 19:47:08 10° WSW 19:49:12 14° W 19:51:16 10° WNW
IGS 5A 3.5 19:50:44 58° ENE 19:50:44 58° ENE 19:54:47 10° N
Cosmos 1680 Rocket 3.4 19:46:28 10° NNW 19:51:46 78° ENE 19:53:19 47° SE
Cosmos 1470 4.1 19:54:32 28° NNE 19:54:32 28° NNE 19:56:35 10° NNE
MOS 1 4.2 19:50:50 33° SSE 19:53:35 84° ENE 19:59:19 10° NNW
Meteor 2-10 4.0 19:48:07 10° S 19:53:44 76° E 19:59:12 10° NNE
Cosmos 2219 4.3 19:51:09 10° NNW 19:56:02 29° NE 19:56:51 28° ENE
Cosmos 2151 Rocket 3.4 19:55:30 58° SSE 19:56:16 74° E 20:00:45 10° NNE
EO 1 Delta rocket 4.1 19:54:11 30° S 19:56:44 84° W 20:02:40 10° N
SL-27 R/B 3.1 19:55:38 10° NNW 19:58:44 50° W 19:58:44 50° W
IRS-1A Rocket 4.3 19:59:35 34° SSE 20:02:19 88° WSW 20:08:17 10° NNW
Cosmos 1727 Rocket 3.9 19:58:01 10° N 20:04:22 77° E 20:06:40 42° SSE
Cosmos 1300 Rocket 4.2 20:00:06 10° SSW 20:04:24 54° WNW 20:08:42 10° N
SPOT 1/Viking Rocket 3.8 20:06:36 50° ENE 20:06:36 50° ENE 20:11:35 10° N
SL-08 R/B 4.5 20:05:56 51° SE 20:06:53 56° E 20:12:53 10° NNE
Cosmos 2112 Rocket 3.9 20:05:36 10° NNW 20:10:54 87° WSW 20:11:50 62° SSE
Meteor 1-22 Rocket 4.3 20:06:34 10° SSW 20:12:12 82° WNW 20:18:07 10° N
Cosmos 1900 4.4 20:08:48 10° NW 20:13:41 69° SW 20:14:14 62° SSW
USA 215 3.9 20:11:36 31° S 20:14:19 47° SW 20:20:37 10° WNW
Cosmos 990 Rocket 3.8 20:14:33 36° SSW 20:16:44 83° ESE 20:21:58 10° NNE
OBJECT-B 3.4 20:16:14 14° WSW 20:17:27 17° W 20:19:41 10° NW
CENTAUR R/B 2.4 20:13:38 10° SSW 20:19:31 71° SE 20:26:41 10° NE
Resurs 01 Rocket 1.7 20:20:47 75° NNW 20:20:47 75° NNW 20:24:52 10° NNW
Helios 1A Rocket 3.8 20:21:11 42° WSW 20:21:41 44° W 20:25:37 10° NNW
Resurs 1-3 4.4 20:21:57 42° SW 20:22:47 48° W 20:27:04 10° NNW
Ariane Rocket 3.2 20:22:33 51° SSW 20:23:39 65° WSW 20:28:45 10° NNW
Meteor 1-21 Rocket 4.5 20:19:55 10° N 20:25:01 53° NE 20:25:01 53° NE
ARIANE 5 R/B 4.3 20:32:15 24° NNE 20:32:15 24° NNE 20:34:26 10° N
SPOT 5 4.0 20:32:01 35° NE 20:32:01 35° NE 20:35:48 10° N
Cosmos 2366 rocket 4.4 20:25:28 10° SSW 20:31:31 61° WNW 20:37:38 10° N
Terra 3.5 20:34:21 22° NNE 20:34:21 22° NNE 20:36:41 10° N
USA 305 4.1 20:29:58 10° WNW 20:32:54 37° WSW 20:32:54 37° WSW
SJ 16-02 3.7 20:31:55 10° WSW 20:35:30 23° NW 20:39:07 10° N
Iridium 4 Rocket 4.1 20:34:07 10° N 20:36:53 39° N 20:36:53 39° N
Cosmos 2297 Rocket 2.4 20:35:41 10° NNW 20:40:50 60° NNE 20:40:50 60° NNE
ISS -0.9 20:39:21 10° WNW 20:40:17 17° W 20:40:17 17° W
Cosmos 1867 3.6 20:37:44 10° NW 20:42:49 74° NNW 20:42:49 74° NNW
USA 238 DEB 3.5 20:37:33 10° SW 20:44:06 86° SE 20:51:05 10° NE
USA 238 3.5 20:37:40 10° SW 20:44:12 86° SE 20:51:11 10° NE
Cosmos 1898 Rocket 4.0 20:50:27 53° N 20:50:27 53° N 20:54:33 10° NNE
NOSS 3-2 (A) 3.7 20:46:45 10° SW 20:52:27 67° NW 20:59:10 10° NE
Cosmos 2227 Rocket 2.7 20:58:23 10° NNW 21:02:56 54° N 21:02:56 54° N
Cosmos 2369 Rocket 4.5 21:00:24 10° W 21:04:46 22° NW 21:09:08 10° NNE
SPOT 3 Rocket 4.4 21:11:17 44° W 21:11:17 44° W 21:15:42 10° NNW
USA 281 3.2 21:09:34 10° NNE 21:15:50 79° NNW 21:15:50 79° NNW
Cosmos 2263 Rocket 3.8 21:11:40 10° NNW 21:15:21 24° NNE 21:15:21 24° NNE
Cosmos 2219 4.3 21:35:04 10° NNW 21:38:45 41° NW 21:38:45 41° NW
Terra 4.2 22:13:15 20° NW 22:13:15 20° NW 22:14:48 10° NNW
CENTAUR R/B 3.7 22:04:42 10° W 22:10:45 42° NNW 22:17:58 10° NE
Cosmos 2297 Rocket 4.3 22:20:23 10° NW 22:22:39 20° WNW 22:22:39 20° WNW
ATLAS 5 CENTAUR R/B 4.5 22:15:34 10° W 22:30:33 39° NNW 22:32:23 32° NNE
Cosmos 2263 Rocket 4.3 22:55:15 10° NNW 22:57:01 21° NNW 22:57:01 21° NNW
ATLAS 3B R/B 4.3 23:21:01 26° NE 23:21:01 26° NE 23:23:52 10° NE
Cosmos 2344 4.3 23:30:19 10° NW 23:37:18 62° WNW 23:37:18 62° WNW
